Wind_Speed
2 2 2 2 4 5 6 5 4 3 2 2 1 2 2 2 3 4 4 5 5 6 7 7 7 8 9 10 11 12 12 12 11 10 9 8 7 6 5 4 3 2 2 2 2 2 1 1 0
5 5 5 5 5 5 8 7 6 4 4 4 4 4 3 4 5 5 5 5 6 6 7 7 8 9 10 11 12 13 13 12 12 11 11 10 9 8 7 6 5 4 4 3 3 3 3 2 2
8 8 7 7 7 8 10 9 8 7 7 7 7 7 6 6 7 6 7 7 7 8 8 8 9 10 11 12 13 13 13 13 13 13 13 12 12 11 10 9 8 7 6 6 6 5 5 5 4
11 10 10 10 11 12 12 11 10 10 10 10 10 10 9 9 9 8 8 8 8 8 8 9 10 10 11 12 13 13 14 14 14 15 15 14 14 13 12 11 11 10 9 8 8 8 8 7 7
13 13 12 12 15 16 15 15 13 13 14 13 13 13 12 12 11 11 10 9 9 9 9 9 10 11 12 13 14 15 15 16 16 16 17 17 16 15 15 14 13 13 12 11 11 11 10 10 10
16 15 15 15 18 19 19 18 16 15 15 14 14 15 15 14 13 12 11 11 11 11 10 11 12 13 14 15 16 17 17 18 19 19 19 19 19 19 18 17 15 15 15 14 14 13 13 13 12
18 18 18 19 21 22 22 20 19 17 17 16 15 16 16 15 14 13 12 13 13 13 13 14 14 15 17 18 19 19 20 21 21 21 21 21 21 21 20 20 18 18 17 17 16 16 16 16 15
20 20 20 21 23 25 25 23 21 19 18 17 17 16 17 16 15 15 14 14 14 14 15 16 17 18 19 21 22 22 23 23 24 24 24 24 24 24 23 22 21 20 20 19 18 18 18 18 17
22 22 22 23 25 26 27 25 24 21 20 19 19 18 17 17 17 17 16 16 16 17 18 19 20 21 22 24 25 25 26 26 26 27 27 27 27 26 26 25 23 22 21 21 20 19 19 20 19
24 23 24 25 26 26 27 26 25 24 23 22 21 20 20 20 19 19 19 19 20 20 21 22 22 23 24 26 27 28 28 28 29 30 30 30 30 30 29 28 26 24 23 22 22 22 21 21 21
25 24 25 26 27 27 27 27 26 25 25 24 23 23 22 22 22 21 22 22 23 23 24 24 25 26 27 29 30 31 31 32 32 32 33 33 33 33 32 31 29 27 26 24 24 23 23 22 21
26 25 25 26 27 27 27 28 28 28 27 27 26 25 24 25 25 24 24 25 25 26 27 27 28 28 29 31 33 34 34 36 35 35 35 35 36 36 35 34 32 30 27 26 26 25 24 23 23
27 26 25 26 26 27 27 28 29 29 29 29 28 28 28 27 28 27 27 28 28 29 30 31 31 32 32 34 34 35 36 35 36 37 37 37 37 37 37 36 34 32 30 29 28 26 25 25 24
26 25 25 25 25 25 26 27 28 28 29 29 30 30 30 29 28 29 28 29 31 32 32 33 33 35 36 37 37 37 37 37 37 37 38 39 39 38 39 37 35 34 33 31 29 27 27 26 26
24 23 22 23 23 24 24 26 26 26 27 28 29 29 29 29 29 29 30 31 31 32 33 34 36 37 38 39 39 37 36 36 37 38 38 39 40 40 39 38 37 36 35 33 31 29 29 28 27
20 19 18 21 21 22 21 24 25 25 26 26 27 27 28 28 29 29 30 31 31 32 34 36 38 39 40 40 40 39 37 37 37 36 37 38 40 40 40 40 39 37 36 35 33 32 30 29 28
15 13 14 19 19 20 20 23 24 24 24 25 25 26 27 28 29 29 30 31 33 34 36 38 39 40 41 41 40 39 38 37 36 35 34 35 37 37 37 38 38 36 36 35 34 33 31 30 29
11 10 12 15 17 18 20 22 23 23 24 24 24 24 25 26 27 28 29 31 33 35 37 39 40 40 40 40 38 37 36 34 34 33 32 33 32 32 33 35 35 34 33 33 33 33 31 30 30
11 10 11 14 15 16 18 19 20 21 22 22 22 22 23 24 26 28 29 32 33 34 36 37 39 39 39 37 36 35 33 32 31 31 30 30 29 27 28 29 31 32 32 32 33 32 32 31 30
9 8 10 13 13 14 15 17 18 18 19 20 20 21 22 24 26 27 30 32 33 34 34 34 36 38 37 36 35 34 33 32 32 31 29 28 26 25 26 27 28 29 30 30 30 32 31 30 29
8 7 9 12 13 13 13 14 15 16 17 18 19 20 22 24 25 27 29 31 32 33 33 34 35 36 36 36 35 35 34 34 34 32 31 29 28 27 28 28 29 30 29 29 30 31 31 31 29
7 10 10 11 10 12 11 11 16 15 15 17 18 20 21 23 25 27 29 30 31 32 34 34 35 36 37 37 38 38 37 37 36 36 35 34 33 32 31 31 31 31 32 31 31 31 32 32 31
8 9 9 9 9 10 11 9 17 16 17 18 19 20 22 23 25 27 29 31 32 34 35 36 37 38 38 39 40 41 41 41 40 40 40 39 39 38 36 34 34 35 34 34 34 34 35 34 34
7 7 7 7 7 9 12 10 16 16 17 18 20 21 23 24 26 28 30 32 34 35 36 37 38 40 41 42 43 43 44 44 44 44 44 44 43 43 42 41 39 40 40 39 39 39 38 38 37
6 6 8 8 8 11 15 13 17 17 18 19 21 23 25 26 28 30 32 34 36 37 38 39 41 42 44 45 45 46 46 47 47 48 48 48 48 48 48 46 45 44 44 44 44 43 43 42 42
7 7 8 9 10 12 16 14 16 17 18 20 23 25 26 28 30 32 34 36 37 39 40 42 43 44 45 46 47 47 48 48 49 50 51 51 52 52 52 51 51 50 50 49 49 49 48 47 46
8 8 9 10 12 11 14 17 16 18 20 22 24 26 28 30 32 34 36 38 39 41 43 44 45 45 46 47 47 48 49 50 51 52 52 53 53 54 54 55 55 55 55 55 55 54 54 53 52
8 8 9 10 11 11 14 18 19 19 21 24 26 28 30 32 35 36 38 40 41 43 44 45 46 46 46 47 48 49 50 51 51 52 52 53 53 54 55 56 57 58 59 60 60 60 60 59 57
9 9 10 11 12 12 14 19 19 21 23 26 28 30 33 35 37 38 40 42 43 44 45 46 46 46 47 47 47 48 48 49 49 49 50 51 52 53 54 54 56 58 60 62 63 64 64 64 63
9 10 11 12 14 14 16 20 20 23 25 28 30 32 34 36 38 40 42 43 44 45 46 46 46 46 47 48 48 48 48 49 49 49 50 50 51 52 53 53 54 55 58 60 62 64 67 68 68
Wind_Direction
295 295 301 313 332 343 333 329 316 301 296 303 303 288 288 304 315 321 317 319 324 327 325 324 324 326 324 321 318 317 316 316 318 319 320 322 324 326 328 331 334 338 340 343 346 346 343 345 358
279 279 280 284 299 317 301 306 304 301 301 300 298 289 285 298 307 314 314 315 317 318 318 320 323 322 321 319 315 312 312 313 313 314 315 315 316 314 313 310 307 302 299 299 301 300 295 286 272
272 271 271 275 280 273 281 290 294 298 299 295 295 296 295 296 299 306 311 312 311 313 314 315 318 318 316 314 312 311 311 311 311 310 311 310 310 309 307 301 297 292 288 285 284 285 285 282 276
272 269 270 272 276 273 277 281 289 289 291 289 291 294 296 298 300 302 303 307 306 306 310 312 313 313 312 310 309 309 310 310 310 309 308 307 306 305 303 298 293 289 285 281 278 276 276 275 273
272 269 267 270 271 273 275 278 282 285 288 287 286 289 293 297 298 298 298 300 303 305 308 309 310 310 309 308 306 306 307 308 308 307 306 304 302 301 298 295 290 287 284 280 276 273 271 270 268
274 272 265 262 266 271 274 277 280 282 284 284 286 289 293 296 297 296 295 297 298 301 305 308 308 306 306 305 304 303 304 305 305 305 304 303 301 299 296 292 288 284 281 278 274 271 268 266 264
272 271 266 263 263 268 271 275 278 279 281 284 288 291 292 293 293 292 293 295 296 297 301 303 303 303 302 302 302 301 301 302 302 301 299 299 299 296 293 290 286 283 280 276 273 269 267 265 262
271 269 266 264 262 265 269 273 276 278 279 281 284 288 289 291 290 288 288 291 294 295 299 301 301 301 301 299 298 298 298 298 298 299 297 295 294 292 290 287 284 281 279 276 272 269 266 264 261
270 267 264 261 260 262 267 269 272 275 275 279 282 284 287 288 289 288 288 291 293 298 300 301 301 300 298 297 296 296 296 296 296 295 295 294 291 289 288 285 281 279 277 274 271 268 266 263 261
270 267 263 261 261 261 263 264 266 269 273 276 279 283 287 287 287 288 289 291 293 296 298 300 301 301 300 298 296 295 295 294 295 294 292 290 289 286 284 282 279 276 275 272 269 267 265 263 260
271 268 266 263 262 261 261 261 263 264 267 271 274 280 283 286 286 287 289 290 292 294 296 298 299 298 296 295 294 293 292 291 292 292 289 287 285 283 281 279 276 274 273 271 269 267 265 260 259
272 269 267 265 264 263 262 262 262 263 264 269 272 276 280 283 285 288 289 289 289 292 295 294 296 295 294 293 292 292 291 289 287 287 286 284 280 278 278 276 275 272 271 270 268 267 265 260 259
272 271 269 267 266 265 264 263 263 264 266 267 270 273 276 279 281 282 284 285 286 287 290 292 292 293 292 294 292 291 289 288 286 286 284 280 277 275 274 273 271 270 270 269 267 266 264 260 258
273 272 271 270 268 267 266 265 265 266 267 269 271 273 275 278 280 281 281 282 284 285 287 288 289 290 291 292 292 290 288 287 285 284 284 280 276 274 274 269 266 266 268 266 265 262 261 260 258
273 274 273 272 271 270 270 270 269 270 271 271 272 274 275 276 278 279 280 281 282 283 284 286 288 288 290 292 293 290 286 285 284 283 281 278 273 273 272 268 264 263 263 264 263 259 258 257 256
275 276 275 274 274 273 273 272 273 273 273 274 274 275 274 274 276 277 278 278 279 281 283 285 287 287 289 290 293 291 288 286 284 285 282 277 274 272 268 266 263 261 261 261 260 258 257 255 253
278 270 266 274 274 274 272 270 276 276 275 276 276 275 274 274 274 275 276 277 278 280 283 283 285 285 288 289 290 291 287 286 285 287 282 279 274 269 266 266 263 260 260 261 259 256 254 252 249
260 262 267 271 275 275 274 275 277 277 278 279 279 277 276 275 275 276 277 278 279 281 283 283 283 285 287 289 290 290 288 286 285 287 281 279 277 269 264 265 261 258 260 260 258 255 252 250 248
266 267 269 274 278 279 278 279 279 280 281 281 281 280 279 278 279 279 280 282 284 284 284 285 285 286 289 291 291 290 291 287 285 286 283 278 277 270 266 262 260 258 258 259 256 253 251 249 247
277 280 280 283 285 286 284 284 284 282 281 281 282 281 282 282 281 282 284 287 286 287 288 289 289 289 289 291 291 291 292 289 286 286 284 279 274 272 268 263 261 259 258 256 252 248 246 246 245
284 279 279 287 292 293 293 295 289 286 285 285 284 284 285 286 286 286 288 289 290 290 292 291 290 290 292 293 292 292 291 289 285 284 284 280 275 273 269 264 259 258 257 253 251 246 244 245 244
275 278 286 294 301 300 299 298 295 293 291 289 291 291 290 290 292 292 293 294 295 294 294 294 293 292 292 292 291 289 288 286 284 282 282 278 275 273 271 264 261 258 256 253 249 245 243 243 242
268 284 293 300 303 301 302 297 292 296 295 295 296 295 295 296 297 297 297 297 297 296 295 295 295 294 292 291 289 287 285 283 281 279 278 277 275 272 269 264 262 258 255 252 249 246 245 243 242
287 298 309 316 318 298 297 299 288 298 297 297 299 300 299 299 299 298 299 298 299 298 296 295 295 294 293 291 289 287 285 283 281 278 276 274 272 270 267 263 260 257 253 252 250 248 245 244 244
290 308 313 311 307 290 296 296 289 300 301 300 302 302 302 301 300 300 301 301 300 298 297 296 295 294 292 291 289 287 285 283 280 278 275 273 270 268 265 262 259 256 253 251 250 248 246 245 244
292 295 290 287 292 295 302 299 300 303 304 304 305 305 304 304 304 304 304 303 301 300 298 297 296 295 294 291 289 287 285 282 280 277 274 272 269 267 264 262 259 255 252 250 249 248 247 245 244
301 295 292 298 303 306 301 303 304 307 308 308 308 308 309 308 308 307 306 305 304 302 301 299 298 296 295 292 290 288 285 282 280 277 274 272 269 267 264 261 259 256 252 249 248 248 248 246 244
300 302 305 307 305 307 305 308 314 314 314 314 313 313 313 312 311 310 308 307 306 305 303 302 300 299 297 295 292 290 287 284 281 277 274 272 269 267 264 261 258 256 254 251 248 247 246 246 245
308 308 310 311 313 314 308 306 318 317 317 317 316 316 316 315 314 313 312 310 309 308 307 306 304 302 300 298 296 293 290 287 284 280 277 274 271 268 265 262 259 256 254 252 250 247 246 245 245
312 316 318 317 316 319 318 313 323 321 320 320 319 319 319 318 317 316 315 314 313 313 311 310 308 307 304 302 299 296 293 290 286 282 279 276 273 270 266 263 260 258 255 252 250 248 247 246 245
Height
5934 5934 5934 5935 5935 5936 5934 5934 5933 5932 5931 5930 5929 5928 5927 5927 5927 5928 5925 5923 5922 5921 5921 5920 5920 5919 5919 5918 5917 5916 5915 5914 5913 5912 5910 5909 5908 5907 5906 5906 5905 5904 5904 5903 5903 5902 5902 5902 5901
5934 5934 5934 5935 5935 5937 5935 5933 5932 5932 5931 5929 5928 5927 5927 5926 5925 5924 5923 5922 5921 5920 5919 5919 5918 5918 5917 5917 5916 5915 5914 5913 5912 5910 5909 5908 5907 5906 5906 5905 5904 5904 5903 5903 5902 5902 5901 5901 5901
5933 5933 5934 5934 5934 5934 5934 5932 5931 5930 5929 5928 5927 5927 5926 5925 5924 5923 5922 5920 5920 5919 5918 5917 5916 5916 5916 5915 5914 5913 5912 5911 5910 5909 5908 5907 5906 5905 5905 5904 5903 5903 5902 5902 5901 5901 5901 5900 5900
5932 5933 5933 5934 5933 5932 5931 5931 5930 5929 5928 5927 5927 5926 5925 5924 5922 5921 5920 5919 5918 5917 5916 5915 5914 5914 5914 5913 5912 5911 5910 5909 5908 5907 5906 5905 5904 5904 5903 5902 5902 5901 5901 5900 5900 5899 5899 5899 5898
5930 5931 5932 5932 5931 5929 5929 5929 5929 5928 5927 5926 5926 5924 5923 5922 5921 5919 5918 5917 5916 5915 5914 5913 5912 5912 5912 5911 5910 5909 5908 5907 5906 5905 5904 5903 5902 5901 5901 5900 5900 5899 5899 5898 5898 5897 5897 5897 5896
5928 5929 5930 5931 5929 5927 5927 5926 5926 5926 5925 5925 5924 5923 5921 5920 5919 5918 5916 5915 5914 5913 5912 5911 5910 5910 5909 5908 5907 5906 5905 5904 5903 5902 5901 5900 5899 5899 5898 5897 5897 5896 5896 5895 5895 5895 5894 5894 5894
5926 5926 5926 5926 5926 5925 5924 5924 5924 5923 5923 5922 5922 5921 5919 5918 5917 5915 5914 5913 5912 5911 5910 5909 5908 5907 5906 5905 5904 5903 5902 5901 5900 5899 5898 5897 5896 5895 5895 5894 5894 5893 5893 5892 5892 5891 5891 5891 5891
5921 5922 5922 5923 5922 5921 5920 5920 5920 5920 5920 5920 5919 5918 5917 5915 5914 5913 5911 5910 5909 5908 5907 5906 5905 5904 5903 5902 5901 5900 5898 5897 5896 5894 5893 5893 5892 5891 5890 5889 5889 5889 5888 5888 5888 5887 5887 5887 5887
5916 5919 5918 5918 5918 5917 5916 5917 5917 5917 5917 5916 5915 5915 5914 5912 5911 5910 5909 5908 5907 5906 5905 5904 5903 5901 5900 5898 5897 5895 5894 5893 5891 5890 5889 5888 5886 5886 5885 5884 5884 5884 5884 5883 5883 5883 5883 5883 5883
5912 5913 5914 5912 5912 5912 5912 5912 5912 5913 5913 5912 5912 5911 5910 5909 5908 5907 5906 5905 5904 5903 5901 5900 5899 5898 5896 5895 5893 5891 5889 5888 5886 5885 5883 5882 5881 5880 5879 5879 5878 5878 5878 5878 5878 5878 5878 5878 5878
5907 5908 5907 5906 5906 5907 5907 5907 5908 5908 5908 5908 5908 5907 5907 5905 5904 5903 5903 5901 5900 5899 5898 5896 5895 5894 5892 5890 5888 5886 5884 5882 5880 5879 5877 5876 5875 5874 5873 5873 5872 5872 5872 5872 5872 5872 5872 5872 5872
5901 5902 5901 5901 5900 5901 5901 5902 5903 5903 5903 5903 5903 5903 5903 5902 5901 5900 5899 5897 5896 5895 5893 5892 5890 5889 5887 5885 5883 5880 5878 5876 5874 5872 5870 5869 5868 5867 5867 5866 5866 5866 5865 5866 5866 5866 5866 5867 5867
5895 5895 5895 5895 5895 5895 5896 5896 5897 5897 5898 5898 5898 5898 5898 5897 5896 5895 5894 5893 5891 5890 5888 5887 5885 5883 5881 5879 5876 5874 5871 5868 5866 5864 5862 5861 5860 5859 5859 5859 5859 5859 5859 5859 5859 5859 5860 5861 5861
5889 5889 5889 5890 5890 5890 5890 5891 5891 5892 5892 5892 5893 5893 5893 5892 5891 5890 5888 5887 5886 5884 5883 5881 5879 5877 5874 5872 5869 5866 5863 5860 5858 5856 5854 5851 5851 5850 5850 5851 5851 5851 5851 5852 5852 5853 5854 5855 5855
5883 5884 5884 5884 5884 5885 5885 5885 5885 5886 5886 5887 5887 5887 5887 5886 5885 5884 5882 5881 5880 5878 5876 5874 5872 5869 5867 5864 5861 5858 5855 5852 5849 5847 5844 5842 5841 5840 5840 5841 5842 5843 5843 5844 5845 5846 5847 5848 5849
5879 5880 5881 5880 5880 5880 5883 5881 5880 5880 5881 5881 5881 5881 5881 5880 5879 5878 5877 5875 5873 5872 5869 5867 5864 5862 5859 5856 5853 5850 5846 5843 5840 5837 5835 5832 5831 5831 5831 5832 5833 5834 5834 5836 5837 5838 5839 5841 5842
5876 5879 5878 5876 5876 5876 5877 5876 5875 5875 5875 5875 5875 5875 5874 5874 5873 5871 5870 5869 5867 5865 5862 5859 5857 5854 5850 5847 5844 5841 5837 5834 5831 5828 5825 5823 5821 5820 5821 5822 5824 5825 5826 5828 5829 5831 5832 5834 5835
5876 5876 5875 5874 5872 5872 5872 5871 5871 5870 5870 5869 5869 5869 5868 5867 5866 5865 5863 5862 5859 5857 5854 5851 5848 5845 5842 5839 5835 5832 5828 5825 5822 5819 5816 5814 5813 5812 5812 5813 5815 5816 5818 5819 5821 5823 5825 5827 5829
5871 5872 5872 5870 5869 5869 5868 5867 5866 5866 5865 5864 5864 5863 5862 5861 5859 5858 5856 5854 5852 5849 5846 5843 5840 5837 5834 5830 5827 5824 5820 5816 5813 5812 5809 5808 5806 5805 5804 5805 5807 5809 5810 5811 5813 5815 5817 5819 5822
5868 5869 5869 5867 5866 5866 5864 5863 5862 5861 5860 5860 5859 5858 5857 5855 5853 5852 5850 5847 5844 5841 5838 5834 5831 5829 5826 5823 5819 5816 5813 5809 5806 5805 5803 5801 5800 5799 5799 5799 5799 5800 5801 5803 5805 5807 5809 5812 5814
5867 5868 5867 5865 5863 5863 5862 5861 5859 5857 5856 5855 5854 5853 5851 5849 5847 5845 5842 5839 5836 5833 5830 5827 5824 5820 5817 5814 5811 5808 5805 5802 5800 5798 5796 5795 5793 5793 5792 5791 5792 5793 5794 5795 5797 5799 5802 5804 5807
5866 5864 5863 5862 5861 5861 5860 5860 5856 5854 5852 5851 5849 5848 5846 5844 5841 5838 5836 5832 5829 5826 5823 5819 5815 5812 5809 5806 5803 5800 5797 5794 5792 5790 5789 5787 5786 5785 5784 5784 5784 5785 5786 5787 5789 5791 5794 5796 5798
5862 5861 5860 5859 5859 5859 5857 5858 5854 5851 5849 5847 5845 5843 5841 5838 5836 5832 5829 5826 5822 5819 5815 5811 5807 5804 5800 5797 5794 5791 5788 5785 5783 5781 5779 5778 5777 5776 5775 5775 5776 5777 5777 5779 5780 5783 5785 5787 5790
5859 5859 5858 5857 5858 5858 5855 5855 5852 5848 5846 5843 5841 5838 5836 5833 5830 5827 5823 5819 5815 5811 5807 5803 5799 5795 5791 5787 5783 5780 5777 5774 5772 5770 5768 5767 5766 5765 5765 5765 5766 5766 5767 5769 5771 5773 5775 5778 5781
5858 5859 5859 5858 5857 5856 5852 5851 5848 5844 5842 5840 5837 5834 5831 5828 5825 5821 5817 5812 5808 5803 5798 5794 5789 5785 5780 5776 5772 5768 5765 5762 5759 5757 5755 5753 5752 5752 5752 5753 5753 5754 5756 5757 5759 5762 5765 5767 5770
5856 5857 5858 5857 5856 5854 5849 5847 5844 5841 5838 5836 5833 5829 5826 5822 5818 5813 5809 5804 5799 5794 5789 5784 5779 5774 5769 5764 5759 5755 5751 5748 5745 5743 5740 5738 5737 5736 5736 5737 5739 5740 5742 5744 5746 5749 5752 5755 5758
5855 5854 5854 5853 5852 5850 5848 5843 5840 5837 5835 5832 5828 5824 5820 5816 5811 5806 5801 5795 5790 5784 5778 5773 5767 5762 5756 5751 5746 5741 5737 5733 5730 5727 5724 5722 5721 5720 5719 5720 5721 5723 5725 5728 5731 5734 5737 5740 5744
5853 5852 5851 5850 5848 5848 5845 5840 5837 5833 5830 5827 5822 5818 5814 5809 5803 5798 5792 5786 5780 5774 5767 5761 5755 5749 5743 5737 5731 5726 5721 5717 5713 5709 5707 5705 5703 5702 5702 5702 5703 5704 5707 5710 5713 5717 5720 5725 5729
5851 5850 5848 5847 5845 5844 5842 5840 5834 5829 5826 5821 5816 5812 5806 5801 5795 5789 5783 5776 5769 5762 5755 5748 5742 5735 5729 5723 5716 5711 5705 5700 5696 5693 5689 5687 5685 5684 5683 5683 5684 5685 5688 5690 5694 5698 5702 5707 5711
5848 5847 5846 5845 5842 5839 5837 5836 5829 5824 5820 5815 5810 5805 5799 5793 5787 5780 5773 5765 5758 5750 5743 5736 5728 5721 5714 5708 5702 5696 5690 5684 5679 5675 5672 5669 5667 5665 5664 5664 5665 5666 5668 5671 5674 5678 5682 5687 5693